DW5861 Weather Reports


time (UTC)temp
C
wind
direction
speed
KPH
gust
KPH
rain 1hr
cm
rain 24hr
cm
rain mn
cm
humidity
%
barometer
mb
20260505122504 20 185 3.2 8.0 0.00 0.00 0.00 92 1008.0
20260505122004 20 188 3.2 6.4 0.00 0.00 0.00 92 1007.8
20260505121504 20 181 3.2 6.4 0.00 0.00 0.00 92 1007.8
20260505121025 20 187 3.2 6.4 0.00 0.00 0.00 92 1007.9
20260505120504 20 185 3.2 8.0 0.00 0.00 0.00 92 1008.0
20260505120005 20 183 3.2 8.0 0.00 0.00 0.00 92 1008.0
20260505115504 20 182 3.2 8.0 0.00 0.00 0.00 92 1008.1
20260505115004 20 187 3.2 6.4 0.00 0.00 0.00 92 1008.1
20260505114504 20 196 3.2 4.8 0.00 0.00 0.00 92 1008.0
20260505114004 20 191 3.2 6.4 0.00 0.00 0.00 92 1008.0
20260505113504 20 184 3.2 6.4 0.00 0.00 0.00 91 1007.7
20260505113004 20 182 3.2 11.3 0.00 0.00 0.00 91 1007.7
20260505112504 20 181 3.2 11.3 0.00 0.00 0.00 91 1007.7
20260505112004 20 182 3.2 9.7 0.00 0.00 0.00 91 1007.8
20260505111504 20 184 4.8 9.7 0.00 0.00 0.00 91 1007.7
20260505111004 20 184 4.8 8.0 0.00 0.00 0.00 91 1007.7
20260505110504 20 186 3.2 8.0 0.00 0.00 0.00 91 1007.7
20260505102004 19 181 3.2 8.0 0.00 0.00 0.00 91 1007.6
20260505101504 19 174 3.2 8.0 0.00 0.00 0.00 91 1007.7
20260505101004 19 178 3.2 8.0 0.00 0.00 0.00 91 1007.6
20260505100504 19 176 3.2 8.0 0.00 0.00 0.00 91 1007.6
20260505100004 19 176 3.2 8.0 0.00 0.00 0.00 91 1007.7
20260505095504 19 179 3.2 8.0 0.00 0.00 0.00 91 1007.7
20260505095004 19 178 3.2 6.4 0.00 0.00 0.00 91 1007.8
20260505094504 19 175 3.2 8.0 0.00 0.00 0.00 91 1007.9
20260505094004 19 170 3.2 8.0 0.00 0.00 0.00 91 1007.9
20260505093504 19 178 3.2 6.4 0.00 0.00 0.00 91 1008.0
20260505093004 19 184 3.2 6.4 0.00 0.00 0.00 91 1008.1
20260505092504 19 177 3.2 6.4 0.00 0.00 0.00 91 1008.1
20260505092004 19 169 3.2 9.7 0.00 0.00 0.00 91 1008.2
20260505091504 19 165 3.2 9.7 0.00 0.00 0.00 91 1008.2
20260505091004 19 166 3.2 8.0 0.00 0.00 0.00 91 1008.3
20260505090504 19 170 3.2 8.0 0.00 0.00 0.00 91 1008.3
20260505090004 19 169 3.2 9.7 0.00 0.00 0.00 91 1008.3
20260505085504 19 167 3.2 9.7 0.00 0.00 0.00 91 1008.3
20260505085025 18 168 3.2 6.4 0.00 0.00 0.00 91 1008.2
20260505084525 18 171 3.2 11.3 0.00 0.00 0.00 91 1008.3
20260505084004 18 181 3.2 11.3 0.00 0.00 0.00 91 1008.4
20260505083504 18 187 1.6 4.8 0.00 0.00 0.00 91 1008.4
20260505083004 18 177 1.6 6.4 0.00 0.00 0.00 91 1008.4
20260505082504 18 175 1.6 6.4 0.00 0.00 0.00 91 1008.4
20260505082004 18 186 1.6 4.8 0.00 0.00 0.00 90 1008.5
20260505081504 18 184 1.6 4.8 0.00 0.00 0.00 90 1008.6
20260505081004 18 178 1.6 4.8 0.00 0.00 0.00 90 1008.6
20260505080525 18 176 1.6 4.8 0.00 0.00 0.00 90 1008.7
20260505080025 18 186 1.6 3.2 0.00 0.00 0.00 90 1008.7
20260505075504 18 185 1.6 4.8 0.00 0.00 0.00 89 1008.8
20260505075025 18 177 1.6 4.8 0.00 0.00 0.00 89 1008.7
20260505074504 18 174 1.6 3.2 0.00 0.00 0.00 89 1008.8
20260505074025 18 173 1.6 4.8 0.00 0.00 0.00 88 1008.7
20260505073504 18 176 1.6 4.8 0.00 0.00 0.00 88 1008.8
20260505073025 18 181 1.6 3.2 0.00 0.00 0.00 88 1008.8
20260505072504 18 186 1.6 4.8 0.00 0.00 0.00 88 1008.8
20260505072004 18 184 1.6 4.8 0.00 0.00 0.00 88 1008.9
20260505071504 18 184 1.6 3.2 0.00 0.00 0.00 87 1008.9
20260505071004 19 187 1.6 4.8 0.00 0.00 0.00 87 1009.0
20260505070504 19 185 1.6 4.8 0.00 0.00 0.00 87 1009.2
20260505070004 19 186 1.6 9.7 0.00 0.00 0.00 87 1009.2
20260505065525 19 184 1.6 9.7 0.00 0.00 0.00 87 1009.1
20260505065004 19 181 1.6 4.8 0.00 0.00 0.00 86 1009.1
20260505064525 19 182 3.2 6.4 0.00 0.00 0.00 86 1009.1
20260505064004 20 185 1.6 6.4 0.00 0.00 0.00 86 1009.3
20260505063504 20 185 1.6 4.8 0.00 0.00 0.00 86 1009.4
20260505063004 20 181 1.6 6.4 0.00 0.00 0.00 85 1009.4
20260505062504 20 179 3.2 6.4 0.00 0.00 0.00 85 1009.5
20260505062004 20 183 3.2 6.4 0.00 0.00 0.00 85 1009.6
20260505061525 20 188 3.2 6.4 0.00 0.00 0.00 85 1009.4
20260505061025 20 183 3.2 9.7 0.00 0.00 0.00 85 1009.4
20260505060504 20 181 3.2 9.7 0.00 0.00 0.00 84 1009.4
20260505060025 20 185 3.2 8.0 0.00 0.00 0.00 84 1009.4
20260505055504 20 191 3.2 8.0 0.00 0.00 0.00 84 1009.4
20260505055004 20 181 3.2 9.7 0.00 0.00 0.00 84 1009.3
20260505054525 20 173 4.8 9.7 0.00 0.00 0.00 84 1009.3
20260505054025 20 177 4.8 9.7 0.00 0.00 0.00 83 1009.4
20260505053525 20 177 4.8 11.3 0.00 0.00 0.00 83 1009.5
20260505053004 20 167 4.8 11.3 0.00 0.00 0.00 83 1009.5
20260505052504 20 165 4.8 11.3 0.00 0.00 0.00 83 1009.4
20260505052004 20 168 4.8 11.3 0.00 0.00 0.00 83 1009.5
20260505051504 20 167 4.8 11.3 0.00 0.00 0.00 82 1009.5
20260505051025 20 165 4.8 14.5 0.00 0.00 0.00 82 1009.6
20260505050504 20 171 4.8 14.5 0.00 0.00 0.00 82 1009.6
20260505041504 21 176 4.8 14.5 0.00 0.00 0.00 79 1009.9
20260505041004 21 182 4.8 14.5 0.00 0.00 0.00 79 1009.8
20260505040504 21 179 4.8 9.7 0.00 0.00 0.00 79 1009.7
20260505040005 21 179 4.8 11.3 0.00 0.00 0.00 78 1009.9
20260505035504 21 182 4.8 11.3 0.00 0.00 0.00 78 1010.1
20260505035004 21 184 3.2 9.7 0.00 0.00 0.00 78 1010.0
20260505034504 21 188 4.8 12.9 0.00 0.00 0.00 77 1010.0
20260505034004 21 180 4.8 14.5 0.00 0.00 0.00 77 1009.8
20260505033504 21 170 4.8 14.5 0.00 0.00 0.00 77 1009.8
20260505033004 21 179 4.8 11.3 0.00 0.00 0.00 77 1009.9
20260505032504 21 175 4.8 12.9 0.00 0.00 0.00 77 1009.8
20260505032004 21 171 4.8 12.9 0.00 0.00 0.00 76 1009.6
20260505031504 21 182 4.8 12.9 0.00 0.00 0.00 76 1009.6
20260505031004 21 178 4.8 11.3 0.00 0.00 0.00 76 1009.8
20260505030504 21 169 4.8 12.9 0.00 0.00 0.00 76 1009.7
20260505030004 21 170 4.8 12.9 0.00 0.00 0.00 76 1009.8
20260505025504 21 173 4.8 9.7 0.00 0.00 0.00 76 1010.0
20260505025004 21 176 3.2 9.7 0.00 0.00 0.00 75 1010.0
20260505024504 21 182 4.8 11.3 0.00 0.00 0.00 75 1009.9
20260505024004 21 179 4.8 12.9 0.00 0.00 0.00 75 1010.0
20260505023504 21 175 4.8 12.9 0.00 0.00 0.00 75 1009.8
20260505023004 22 185 4.8 12.9 0.00 0.00 0.00 75 1009.8
20260505022504 22 179 4.8 16.1 0.00 0.00 0.00 75 1009.8
20260505022004 22 172 4.8 16.1 0.00 0.00 0.00 75 1009.6
20260505021504 22 173 4.8 8.0 0.00 0.00 0.00 75 1009.6
20260505021004 22 172 4.8 12.9 0.00 0.00 0.00 74 1009.6
20260505020525 22 175 4.8 12.9 0.00 0.00 0.00 74 1009.5
20260505020004 22 179 4.8 12.9 0.00 0.00 0.00 74 1009.4
20260505015504 22 178 4.8 14.5 0.00 0.00 0.00 74 1009.4
20260505015004 22 174 4.8 14.5 0.00 0.00 0.00 73 1009.2
20260505014504 22 168 4.8 12.9 0.00 0.00 0.00 73 1009.2
20260505014004 22 164 3.2 12.9 0.00 0.00 0.00 72 1009.3
20260505013525 22 159 3.2 11.3 0.00 0.00 0.00 72 1009.3
20260505013007 22 168 3.2 11.3 0.00 0.00 0.00 72 1009.3
20260505012504 22 175 4.8 11.3 0.00 0.00 0.00 71 1009.2
20260505012024 23 172 4.8 11.3 0.00 0.00 0.00 71 1009.1
20260505011504 23 168 4.8 14.5 0.00 0.00 0.00 70 1008.9
20260505011025 23 167 4.8 14.5 0.00 0.00 0.00 70 1009.0
20260505010504 23 169 3.2 11.3 0.00 0.00 0.00 70 1008.9
20260505010004 23 163 3.2 11.3 0.00 0.00 0.00 69 1008.9
20260505005504 23 154 3.2 11.3 0.00 0.00 0.00 69 1008.9
20260505005025 23 159 3.2 11.3 0.00 0.00 0.00 68 1008.8
20260505004504 23 179 3.2 6.4 0.00 0.00 0.00 68 1009.0
20260505004004 24 176 4.8 9.7 0.00 0.00 0.00 67 1009.0
20260505003504 24 174 4.8 9.7 0.00 0.00 0.00 67 1009.1
20260505003004 24 180 3.2 9.7 0.00 0.00 0.00 66 1009.2
20260505002504 24 188 3.2 8.0 0.00 0.00 0.00 66 1009.1
20260505002004 25 185 3.2 8.0 0.00 0.00 0.00 65 1009.2
20260505001504 25 187 4.8 11.3 0.00 0.00 0.00 65 1009.2
20260505001004 25 187 4.8 12.9 0.00 0.00 0.00 65 1009.3
20260505000525 25 181 4.8 12.9 0.00 0.00 0.00 64 1009.2
20260505000004 25 180 4.8 12.9 0.00 0.00 0.00 63 1009.5
20260504235504 25 187 4.8 11.3 0.00 0.00 0.00 63 1009.4
20260504235004 25 192 4.8 11.3 0.00 0.00 0.00 62 1009.4
20260504234504 25 180 4.8 11.3 0.00 0.00 0.00 61 1009.4
20260504234004 26 169 4.8 12.9 0.00 0.00 0.00 61 1009.3
20260504233503 26 171 4.8 12.9 0.00 0.00 0.00 60 1009.4
20260504233025 26 185 4.8 11.3 0.00 0.00 0.00 61 1009.5
20260504232504 26 188 4.8 11.3 0.00 0.00 0.00 61 1009.4
20260504232025 26 178 4.8 9.7 0.00 0.00 0.00 59 1009.5
20260504231525 26 174 4.8 9.7 0.00 0.00 0.00 59 1009.7
20260504231004 26 173 6.4 14.5 0.00 0.00 0.00 59 1009.7
20260504230525 26 169 6.4 14.5 0.00 0.00 0.00 58 1009.8
20260504230004 26 163 6.4 19.3 0.00 0.00 0.00 58 1009.7
20260504225504 26 174 4.8 19.3 0.00 0.00 0.00 57 1009.6
20260504225004 26 168 6.4 16.1 0.00 0.00 0.00 57 1009.6
20260504224504 27 161 8.0 17.7 0.00 0.00 0.00 55 1009.8
20260504224025 27 160 6.4 17.7 0.00 0.00 0.00 55 1009.8
20260504223504 27 162 4.8 12.9 0.00 0.00 0.00 55 1009.9
20260504223025 27 171 4.8 14.5 0.00 0.00 0.00 55 1009.9
20260504222525 27 165 6.4 17.7 0.00 0.00 0.00 55 1009.9
20260504222025 27 167 6.4 17.7 0.00 0.00 0.00 54 1010.1
20260504221504 27 182 4.8 14.5 0.00 0.00 0.00 54 1010.2
20260504221007 27 181 4.8 16.1 0.00 0.00 0.00 53 1010.3
20260504220504 27 178 4.8 16.1 0.00 0.00 0.00 52 1010.3
20260504220024 27 200 4.8 12.9 0.00 0.00 0.00 53 1010.3
20260504215505 28 206 4.8 12.9 0.00 0.00 0.00 52 1010.3
20260504215004 28 191 6.4 16.1 0.00 0.00 0.00 51 1010.4
20260504214504 28 179 6.4 16.1 0.00 0.00 0.00 52 1010.3
20260504214025 28 180 8.0 16.1 0.00 0.00 0.00 50 1010.5
20260504213504 28 172 6.4 16.1 0.00 0.00 0.00 48 1010.4
20260504213003 29 171 4.8 14.5 0.00 0.00 0.00 48 1010.4
20260504212525 29 182 6.4 14.5 0.00 0.00 0.00 50 1010.5
20260504212004 28 181 6.4 14.5 0.00 0.00 0.00 47 1010.6
20260504211504 28 186 6.4 17.7 0.00 0.00 0.00 47 1010.9
20260504211003 28 187 6.4 17.7 0.00 0.00 0.00 48 1011.0
20260504210504 28 184 4.8 14.5 0.00 0.00 0.00 48 1011.1
20260504210004 28 178 6.4 16.1 0.00 0.00 0.00 48 1011.3
20260504205524 29 185 6.4 16.1 0.00 0.00 0.00 48 1011.3
20260504205004 29 180 4.8 14.5 0.00 0.00 0.00 48 1011.2
20260504204504 29 169 6.4 12.9 0.00 0.00 0.00 48 1011.3
20260504204003 28 170 6.4 16.1 0.00 0.00 0.00 47 1011.4
20260504203503 28 175 6.4 16.1 0.00 0.00 0.00 48 1011.4
20260504203003 28 187 6.4 14.5 0.00 0.00 0.00 46 1011.6
20260504202524 29 200 4.8 12.9 0.00 0.00 0.00 47 1011.6
20260504202004 28 190 4.8 16.1 0.00 0.00 0.00 47 1011.8
20260504201504 28 196 4.8 16.1 0.00 0.00 0.00 47 1012.1
20260504201004 28 208 4.8 11.3 0.00 0.00 0.00 47 1012.2
20260504200504 29 195 6.4 11.3 0.00 0.00 0.00 46 1012.2
20260504200004 28 196 8.0 17.7 0.00 0.00 0.00 45 1012.1
20260504195504 28 181 8.0 17.7 0.00 0.00 0.00 45 1012.3
20260504195004 28 167 6.4 16.1 0.00 0.00 0.00 45 1012.4
20260504194504 29 176 6.4 11.3 0.00 0.00 0.00 45 1012.4
20260504194004 28 187 6.4 12.9 0.00 0.00 0.00 47 1012.4
20260504193525 28 189 6.4 14.5 0.00 0.00 0.00 45 1012.5
20260504193004 28 177 6.4 14.5 0.00 0.00 0.00 46 1012.7
20260504192504 28 177 6.4 14.5 0.00 0.00 0.00 43 1012.8
20260504192004 28 177 6.4 12.9 0.00 0.00 0.00 43 1012.7
20260504191504 28 170 4.8 12.9 0.00 0.00 0.00 45 1012.7
20260504191025 29 191 4.8 12.9 0.00 0.00 0.00 45 1012.9
20260504190504 28 182 4.8 14.5 0.00 0.00 0.00 43 1013.1
20260504190004 28 159 4.8 14.5 0.00 0.00 0.00 42 1013.1
20260504185504 28 175 6.4 14.5 0.00 0.00 0.00 41 1013.2
20260504185004 28 174 6.4 17.7 0.00 0.00 0.00 39 1013.2
20260504184504 28 160 6.4 17.7 0.00 0.00 0.00 40 1013.4
20260504184004 28 163 4.8 16.1 0.00 0.00 0.00 41 1013.4
20260504183503 28 178 6.4 12.9 0.00 0.00 0.00 41 1013.5
20260504183003 28 193 4.8 9.7 0.00 0.00 0.00 44 1013.5
20260504182503 27 179 4.8 16.1 0.00 0.00 0.00 42 1013.6
20260504182003 27 175 6.4 16.1 0.00 0.00 0.00 43 1013.4
20260504181503 27 176 6.4 17.7 0.00 0.00 0.00 40 1013.7
20260504181024 28 183 6.4 17.7 0.00 0.00 0.00 45 1013.9
20260504180504 27 197 6.4 19.3 0.00 0.00 0.00 42 1013.9
20260504180004 27 188 6.4 19.3 0.00 0.00 0.00 47 1014.1
20260504175503 27 183 6.4 16.1 0.00 0.00 0.00 42 1014.4
20260504175024 27 191 4.8 12.9 0.00 0.00 0.00 44 1014.5
20260504174524 27 202 4.8 12.9 0.00 0.00 0.00 46 1014.3
20260504174024 27 206 4.8 14.5 0.00 0.00 0.00 46 1014.4
20260504173503 27 186 6.4 14.5 0.00 0.00 0.00 44 1014.4
20260504173003 27 179 6.4 12.9 0.00 0.00 0.00 47 1014.5
20260504172524 26 176 4.8 12.9 0.00 0.00 0.00 46 1014.5
20260504172004 27 174 6.4 14.5 0.00 0.00 0.00 47 1014.6
20260504171504 27 178 6.4 14.5 0.00 0.00 0.00 47 1014.7
20260504171003 26 180 4.8 11.3 0.00 0.00 0.00 47 1014.7
20260504170531 26 174 4.8 17.7 0.00 0.00 0.00 46 1014.9
20260504151006 23 184 6.4 17.7 0.00 0.00 0.00 59 1015.6
20260504150524 23 187 4.8 12.9 0.00 0.00 0.00 61 1015.7
20260504141003 20 183 4.8 9.7 0.00 0.00 0.00 72 1016.1
20260504140524 19 189 3.2 8.0 0.00 0.00 0.00 75 1016.1
20260504130503 13 183 1.6 6.4 0.00 0.00 0.00 90 1015.9